GW7188 Weather Reports


time (UTC)temp
C
wind
direction
speed
KPH
gust
KPH
rain 1hr
cm
rain 24hr
cm
rain mn
cm
humidity
%
barometer
mb
20260502152329 13 8 4.8 12.9 0.00 0.00 0.00 51 1022.2
20260502151830 13 21 8.0 11.3 0.00 0.00 0.00 51 1022.2
20260502151330 13 36 4.8 8.0 0.00 0.00 0.00 53 1022.1
20260502150829 13 329 1.6 4.8 0.00 0.00 0.00 55 1022.1
20260502150330 13 108 1.6 6.4 0.00 0.00 0.00 52 1022.1
20260502130330 7 324 1.6 4.8 0.00 0.00 0.00 63 1021.5
20260502123329 5 229 0.0 3.2 0.00 0.00 0.00 71 1021.0
20260502122829 5 286 0.0 3.2 0.00 0.00 0.00 72 1021.0
20260502122329 5 91 0.0 3.2 0.00 0.00 0.00 72 1021.0
20260502121829 4 113 0.0 3.2 0.00 0.00 0.00 73 1020.9
20260502121329 4 260 0.0 1.6 0.00 0.00 0.00 73 1020.8
20260502120829 4 314 0.0 3.2 0.00 0.00 0.00 74 1020.8
20260502120330 3 78 0.0 1.6 0.00 0.00 0.00 74 1020.7
20260502115830 3 12 0.0 1.6 0.00 0.00 0.00 75 1020.6
20260502115329 3 307 0.0 3.2 0.00 0.00 0.00 75 1020.5
20260502114830 3 0 0.0 0.0 0.00 0.00 0.00 75 1020.4
20260502114329 3 87 0.0 1.6 0.00 0.00 0.00 75 1020.4
20260502113829 3 34 0.0 1.6 0.00 0.00 0.00 74 1020.3
20260502113329 3 355 0.0 1.6 0.00 0.00 0.00 74 1020.3
20260502112829 3 279 1.6 4.8 0.00 0.00 0.00 74 1020.2
20260502112329 3 279 0.0 1.6 0.00 0.00 0.00 74 1020.2
20260502111832 3 0 0.0 0.0 0.00 0.00 0.00 74 1020.2
20260502111329 3 0 0.0 0.0 0.00 0.00 0.00 74 1020.2
20260502110829 3 0 0.0 0.0 0.00 0.00 0.00 74 1020.2
20260502110329 3 0 0.0 0.0 0.00 0.00 0.00 74 1020.2
20260502105830 3 0 0.0 0.0 0.00 0.00 0.00 73 1020.2
20260502105330 4 0 0.0 0.0 0.00 0.00 0.00 72 1020.1
20260502104829 4 0 0.0 0.0 0.00 0.00 0.00 72 1020.1
20260502104329 4 0 0.0 0.0 0.00 0.00 0.00 71 1020.1
20260502103830 4 0 0.0 0.0 0.00 0.00 0.00 71 1020.1
20260502103331 5 0 0.0 0.0 0.00 0.00 0.00 70 1020.0
20260502102830 5 318 0.0 1.6 0.00 0.00 0.00 70 1020.0
20260502102329 5 0 0.0 0.0 0.00 0.00 0.00 70 1020.0
20260502101329 5 280 0.0 1.6 0.00 0.00 0.00 69 1019.9
20260502100830 5 0 0.0 0.0 0.00 0.00 0.00 69 1019.9
20260502100329 5 0 0.0 0.0 0.00 0.00 0.00 69 1019.8
20260502091329 6 316 1.6 3.2 0.00 0.00 0.00 63 1019.5
20260502090829 6 249 0.0 3.2 0.00 0.00 0.00 64 1019.5
20260502090332 6 336 1.6 6.4 0.00 0.00 0.00 64 1019.4
20260502071329 8 3 1.6 4.8 0.00 0.00 0.00 54 1019.4
20260502070829 8 341 1.6 6.4 0.00 0.00 0.00 54 1019.4
20260502070329 8 5 0.0 3.2 0.00 0.00 0.00 54 1019.4
20260502065830 8 0 0.0 3.2 0.00 0.00 0.00 54 1019.3
20260502065329 8 275 0.0 1.6 0.00 0.00 0.00 54 1019.4
20260502064829 8 0 0.0 0.0 0.00 0.00 0.00 54 1019.4
20260502064329 8 354 0.0 3.2 0.00 0.00 0.00 53 1019.4
20260502063829 9 0 0.0 0.0 0.00 0.00 0.00 53 1019.4
20260502063330 9 350 0.0 3.2 0.00 0.00 0.00 52 1019.4
20260502062829 9 42 0.0 3.2 0.00 0.00 0.00 52 1019.4
20260502062330 9 17 3.2 9.7 0.00 0.00 0.00 52 1019.5
20260502061830 9 6 1.6 4.8 0.00 0.00 0.00 52 1019.5
20260502061330 9 0 3.2 4.8 0.00 0.00 0.00 51 1019.5
20260502060829 9 343 1.6 4.8 0.00 0.00 0.00 51 1019.5
20260502060330 10 353 0.0 4.8 0.00 0.00 0.00 51 1019.6
20260502055829 10 19 1.6 6.4 0.00 0.00 0.00 51 1019.6
20260502055329 10 13 3.2 6.4 0.00 0.00 0.00 51 1019.6
20260502054830 10 351 1.6 4.8 0.00 0.00 0.00 51 1019.6
20260502054329 10 11 4.8 6.4 0.00 0.00 0.00 51 1019.6
20260502053829 10 0 3.2 6.4 0.00 0.00 0.00 52 1019.5
20260502053329 10 20 3.2 4.8 0.00 0.00 0.00 52 1019.5
20260502052829 10 351 0.0 3.2 0.00 0.00 0.00 52 1019.4
20260502052330 10 1 1.6 9.7 0.00 0.00 0.00 51 1019.4
20260502051829 10 25 4.8 8.0 0.00 0.00 0.00 50 1019.4
20260502051329 10 0 3.2 9.7 0.00 0.00 0.00 51 1019.3
20260502050829 10 2 3.2 6.4 0.00 0.00 0.00 51 1019.3
20260502050329 10 9 3.2 6.4 0.00 0.00 0.00 51 1019.3
20260502045829 10 350 1.6 6.4 0.00 0.00 0.00 51 1019.2
20260502045329 10 11 4.8 9.7 0.00 0.00 0.00 51 1019.2
20260502044829 10 17 1.6 4.8 0.00 0.00 0.00 52 1019.2
20260502044329 10 355 1.6 4.8 0.00 0.00 0.00 53 1019.2
20260502043829 10 346 1.6 3.2 0.00 0.00 0.00 53 1019.2
20260502043329 10 12 1.6 3.2 0.00 0.00 0.00 53 1019.2
20260502042829 11 11 3.2 6.4 0.00 0.00 0.00 53 1019.1
20260502042330 11 8 0.0 3.2 0.00 0.00 0.00 53 1019.1
20260502041830 11 318 0.0 4.8 0.00 0.00 0.00 54 1019.1
20260502041329 11 0 0.0 0.0 0.00 0.00 0.00 53 1019.1
20260502040829 11 0 0.0 0.0 0.00 0.00 0.00 52 1019.1
20260502040330 11 1 0.0 3.2 0.00 0.00 0.00 51 1019.1
20260502035829 11 327 1.6 6.4 0.00 0.00 0.00 51 1019.1
20260502035330 12 41 0.0 1.6 0.00 0.00 0.00 51 1019.1
20260502034830 12 8 1.6 4.8 0.00 0.00 0.00 51 1019.1
20260502034329 12 27 4.8 9.7 0.00 0.00 0.00 50 1019.0
20260502033829 11 20 6.4 9.7 0.00 0.00 0.00 51 1019.0
20260502033329 11 1 3.2 6.4 0.00 0.00 0.00 53 1019.0
20260502032829 11 0 0.0 0.0 0.00 0.00 0.00 54 1018.9
20260502032329 11 0 0.0 0.0 0.00 0.00 0.00 54 1018.9
20260502031830 12 0 0.0 0.0 0.00 0.00 0.00 53 1018.8
20260502031330 12 345 0.0 3.2 0.00 0.00 0.00 52 1018.7
20260502030829 12 329 0.0 3.2 0.00 0.00 0.00 52 1018.7
20260502030330 12 16 0.0 3.2 0.00 0.00 0.00 52 1018.6
20260502025831 12 0 0.0 0.0 0.00 0.00 0.00 52 1018.5
20260502025329 12 17 0.0 1.6 0.00 0.00 0.00 50 1018.4
20260502024829 12 358 0.0 3.2 0.00 0.00 0.00 50 1018.3
20260502024330 12 24 0.0 1.6 0.00 0.00 0.00 50 1018.3
20260502023829 13 11 0.0 0.0 0.00 0.00 0.00 49 1018.2
20260502023329 13 348 1.6 3.2 0.00 0.00 0.00 49 1018.2
20260502022829 13 1 1.6 4.8 0.00 0.00 0.00 49 1018.1
20260502022329 13 10 1.6 4.8 0.00 0.00 0.00 49 1017.9
20260502021829 13 10 0.0 3.2 0.00 0.00 0.00 48 1017.9
20260502021329 13 1 1.6 4.8 0.00 0.00 0.00 48 1017.8
20260502020829 13 324 0.0 1.6 0.00 0.00 0.00 48 1017.7
20260502020332 13 12 3.2 6.4 0.00 0.00 0.00 48 1017.6
20260502015829 13 4 0.0 3.2 0.00 0.00 0.00 48 1017.5
20260502015329 13 6 1.6 6.4 0.00 0.00 0.00 48 1017.5
20260502014830 13 347 1.6 4.8 0.00 0.00 0.00 48 1017.4
20260502014329 13 338 1.6 3.2 0.00 0.00 0.00 48 1017.3
20260502013831 13 337 1.6 3.2 0.00 0.00 0.00 48 1017.3
20260502013329 13 0 0.0 0.0 0.00 0.00 0.00 48 1017.2
20260502012829 13 334 0.0 1.6 0.00 0.00 0.00 48 1017.1
20260502012329 14 0 0.0 0.0 0.00 0.00 0.00 48 1017.0
20260502011829 14 0 0.0 0.0 0.00 0.00 0.00 47 1016.9
20260502011330 14 0 0.0 0.0 0.00 0.00 0.00 47 1016.8
20260502010830 15 346 0.0 3.2 0.00 0.00 0.00 46 1016.8
20260502010329 15 11 0.0 1.6 0.00 0.00 0.00 45 1016.7
20260502005830 15 0 0.0 0.0 0.00 0.00 0.00 44 1016.6
20260502004845 16 0 0.0 0.0 0.00 0.00 0.00 43 1016.5
20260502004329 16 22 0.0 3.2 0.00 0.00 0.00 43 1016.4
20260502003829 17 260 0.0 0.0 0.00 0.00 0.00 41 1016.4
20260502003330 17 0 0.0 0.0 0.00 0.00 0.00 40 1016.4
20260502002829 17 5 3.2 6.4 0.00 0.00 0.00 40 1016.3
20260502002330 17 283 1.6 6.4 0.00 0.00 0.00 41 1016.3
20260502001830 17 219 0.0 3.2 0.00 0.00 0.00 40 1016.2
20260502001329 17 158 3.2 4.8 0.00 0.00 0.00 40 1016.2
20260502000829 17 246 0.0 3.2 0.00 0.00 0.00 43 1016.2
20260502000332 17 0 0.0 0.0 0.00 0.00 0.00 41 1016.2
20260501235830 18 208 0.0 4.8 0.00 0.00 0.00 39 1016.2
20260501235329 18 286 0.0 1.6 0.00 0.00 0.00 39 1016.2
20260501234830 17 8 1.6 6.4 0.00 0.00 0.00 40 1016.2
20260501234330 18 69 1.6 6.4 0.00 0.00 0.00 39 1016.2
20260501233829 18 271 1.6 4.8 0.00 0.00 0.00 39 1016.2
20260501233330 18 19 0.0 3.2 0.00 0.00 0.00 40 1016.2
20260501232829 18 324 4.8 8.0 0.00 0.00 0.00 39 1016.2
20260501232329 17 286 3.2 6.4 0.00 0.00 0.00 39 1016.2
20260501231829 17 269 1.6 6.4 0.00 0.00 0.00 39 1016.2
20260501231330 17 304 3.2 6.4 0.00 0.00 0.00 39 1016.2
20260501230830 18 344 0.0 3.2 0.00 0.00 0.00 38 1016.1
20260501230331 18 299 1.6 6.4 0.00 0.00 0.00 38 1016.2
20260501225831 18 1 4.8 9.7 0.00 0.00 0.00 37 1016.2
20260501225329 18 8 3.2 6.4 0.00 0.00 0.00 38 1016.2
20260501224830 18 283 1.6 6.4 0.00 0.00 0.00 39 1016.2
20260501224330 18 25 4.8 12.9 0.00 0.00 0.00 38 1016.2
20260501223830 17 13 3.2 6.4 0.00 0.00 0.00 38 1016.2
20260501223329 17 7 6.4 12.9 0.00 0.00 0.00 38 1016.2
20260501222830 17 354 4.8 6.4 0.00 0.00 0.00 39 1016.2
20260501222330 17 44 1.6 3.2 0.00 0.00 0.00 40 1016.3
20260501221829 18 355 3.2 9.7 0.00 0.00 0.00 39 1016.3
20260501221329 18 160 1.6 3.2 0.00 0.00 0.00 38 1016.2
20260501220829 19 259 4.8 12.9 0.00 0.00 0.00 39 1016.2
20260501220329 18 253 3.2 9.7 0.00 0.00 0.00 39 1016.3
20260501215830 18 250 8.0 12.9 0.00 0.00 0.00 39 1016.3
20260501215329 18 238 4.8 9.7 0.00 0.00 0.00 40 1016.4
20260501214415 18 261 6.4 12.9 0.00 0.00 0.00 39 1016.5
20260501213830 18 21 1.6 6.4 0.00 0.00 0.00 39 1016.6
20260501213329 18 341 4.8 9.7 0.00 0.00 0.00 40 1016.6
20260501212829 18 266 3.2 6.4 0.00 0.00 0.00 40 1016.8
20260501212330 18 44 1.6 6.4 0.00 0.00 0.00 41 1016.9
20260501211829 18 281 3.2 9.7 0.00 0.00 0.00 40 1016.9
20260501211329 18 12 3.2 8.0 0.00 0.00 0.00 40 1017.1
20260501210829 18 268 3.2 11.3 0.00 0.00 0.00 42 1017.2
20260501210332 18 312 4.8 6.4 0.00 0.00 0.00 40 1017.3
20260501205829 18 16 1.6 4.8 0.00 0.00 0.00 40 1017.4
20260501205329 17 275 3.2 4.8 0.00 0.00 0.00 39 1017.4
20260501204829 17 272 3.2 6.4 0.00 0.00 0.00 40 1017.5
20260501204330 17 46 3.2 8.0 0.00 0.00 0.00 40 1017.6
20260501203829 17 348 1.6 3.2 0.00 0.00 0.00 41 1017.6
20260501203329 17 5 1.6 4.8 0.00 0.00 0.00 40 1017.7
20260501202829 17 289 3.2 8.0 0.00 0.00 0.00 40 1017.7
20260501202330 17 102 0.0 1.6 0.00 0.00 0.00 40 1017.8
20260501201830 17 249 3.2 6.4 0.00 0.00 0.00 39 1017.8
20260501201330 18 242 3.2 6.4 0.00 0.00 0.00 39 1017.9
20260501200830 18 344 3.2 8.0 0.00 0.00 0.00 39 1018.1
20260501200329 17 21 1.6 3.2 0.00 0.00 0.00 40 1018.1
20260501195829 17 350 1.6 6.4 0.00 0.00 0.00 39 1018.1
20260501195329 18 246 1.6 6.4 0.00 0.00 0.00 40 1018.2
20260501194829 18 282 0.0 6.4 0.00 0.00 0.00 38 1018.3
20260501194329 18 279 3.2 9.7 0.00 0.00 0.00 39 1018.3
20260501193829 18 306 3.2 6.4 0.00 0.00 0.00 39 1018.5
20260501193329 17 230 1.6 3.2 0.00 0.00 0.00 41 1018.5
20260501192829 17 21 3.2 4.8 0.00 0.00 0.00 40 1018.5
20260501192329 17 247 3.2 4.8 0.00 0.00 0.00 40 1018.5
20260501191829 18 299 1.6 3.2 0.00 0.00 0.00 41 1018.5
20260501191329 17 187 3.2 6.4 0.00 0.00 0.00 41 1018.5
20260501190831 17 35 1.6 6.4 0.00 0.00 0.00 39 1018.5
20260501190331 17 49 0.0 4.8 0.00 0.00 0.00 41 1018.6
20260501185830 17 244 3.2 6.4 0.00 0.00 0.00 40 1018.7
20260501185329 17 17 3.2 6.4 0.00 0.00 0.00 42 1018.6
20260501184829 18 270 6.4 12.9 0.00 0.00 0.00 40 1018.6
20260501184329 18 255 3.2 6.4 0.00 0.00 0.00 40 1018.6
20260501183830 18 264 4.8 8.0 0.00 0.00 0.00 42 1018.6
20260501183330 18 253 4.8 9.7 0.00 0.00 0.00 41 1018.7
20260501182830 17 232 4.8 9.7 0.00 0.00 0.00 40 1018.8
20260501182329 18 293 1.6 4.8 0.00 0.00 0.00 40 1018.8
20260501181830 18 234 3.2 6.4 0.00 0.00 0.00 41 1018.8
20260501181331 17 273 3.2 8.0 0.00 0.00 0.00 40 1018.8
20260501180830 17 16 1.6 4.8 0.00 0.00 0.00 39 1018.9
20260501180329 17 257 3.2 6.4 0.00 0.00 0.00 40 1019.0
20260501175830 17 23 6.4 9.7 0.00 0.00 0.00 38 1019.0
20260501175330 18 283 3.2 8.0 0.00 0.00 0.00 39 1019.1
20260501174829 18 14 6.4 14.5 0.00 0.00 0.00 39 1019.0
20260501174330 17 296 1.6 4.8 0.00 0.00 0.00 41 1019.1
20260501173830 17 296 3.2 6.4 0.00 0.00 0.00 40 1019.0
20260501173329 17 1 1.6 6.4 0.00 0.00 0.00 39 1019.1
20260501172329 16 120 3.2 8.0 0.00 0.00 0.00 41 1019.2
20260501171829 16 248 3.2 6.4 0.00 0.00 0.00 43 1019.2
20260501171329 16 213 8.0 12.9 0.00 0.00 0.00 41 1019.3
20260501170830 16 189 1.6 3.2 0.00 0.00 0.00 41 1019.3
20260501170329 16 196 3.2 9.7 0.00 0.00 0.00 41 1019.4
20260501165829 16 265 3.2 6.4 0.00 0.00 0.00 39 1019.4
20260501165329 16 142 1.6 4.8 0.00 0.00 0.00 42 1019.4
20260501164830 16 258 6.4 14.5 0.00 0.00 0.00 40 1019.4
20260501164330 16 194 1.6 4.8 0.00 0.00 0.00 41 1019.4
20260501163829 16 271 1.6 3.2 0.00 0.00 0.00 41 1019.4
20260501163330 16 225 4.8 8.0 0.00 0.00 0.00 42 1019.4
20260501162830 16 241 3.2 4.8 0.00 0.00 0.00 44 1019.4
20260501162329 16 243 1.6 3.2 0.00 0.00 0.00 43 1019.4
20260501161830 15 218 3.2 4.8 0.00 0.00 0.00 45 1019.3
20260501161330 15 113 4.8 8.0 0.00 0.00 0.00 46 1019.2
20260501160830 15 209 3.2 6.4 0.00 0.00 0.00 47 1019.3
20260501160329 15 290 3.2 6.4 0.00 0.00 0.00 49 1019.2
20260501155831 15 55 1.6 4.8 0.00 0.00 0.00 47 1019.3
20260501155329 15 259 1.6 6.4 0.00 0.00 0.00 46 1019.3
20260501154829 14 205 1.6 4.8 0.00 0.00 0.00 47 1019.2
20260501154329 15 234 4.8 11.3 0.00 0.00 0.00 46 1019.2